Location: Newark
(39.9500°N, 8.6833°E)
Time: 22:29:36
(UTC+00:00)

NO-84 - Visible Passes

Search period start: 21 February 2020 00:00
Search period end: 02 March 2020 00:00
Orbit: 330 x 494 km, 55.0° (Epoch: 19 February)

Date Brightness Start Highest point End Pass type
(mag) Time Alt. Az. Time Alt. Az. Time Alt. Az.
22 Feb ? 05:05:41 10° NNW 05:08:20 18° NNE 05:10:54 10° ENE visible
23 Feb ? 04:16:56 11° N 04:18:28 13° NNE 04:20:21 10° NE visible
24 Feb ? 03:29:19 10° NNE 03:29:19 10° NNE 03:29:23 10° NNE visible
24 Feb ? 05:02:29 10° NNW 05:05:54 33° NE 05:09:09 10° E visible
25 Feb ? 04:14:34 17° N 04:16:06 22° NNE 04:18:59 10° E visible
26 Feb ? 03:27:05 15° NE 03:27:05 15° NE 03:28:32 10° ENE visible
26 Feb ? 04:59:55 13° NW 05:03:10 79° NE 05:06:42 10° SE visible
27 Feb ? 04:12:33 35° N 04:13:28 43° NE 04:16:55 10° ESE visible
28 Feb ? 03:25:18 19° ENE 03:25:18 19° ENE 03:26:49 10° E visible
28 Feb ? 04:58:10 21° WNW 05:00:08 38° SW 05:03:26 10° SSE visible
29 Feb ? 04:11:05 61° SSE 04:11:05 61° SSE 04:14:06 10° SE visible
01 Mar ? 03:24:09 12° ESE 03:24:09 12° ESE 03:24:24 10° ESE visible
01 Mar ? 04:57:02 15° SW 04:57:02 15° SW 04:58:53 10° SSW visible
